Regional Weather Roundup
Issued by NWS

Home | Current Version | Previous Version | Graphics & Text | Print | Product List | Glossary On
Versions: 1 2 3 4 5 6 7 8 9 10 11 12 13 14 15 16 17 18 19 20 21 22 23 24 25 26 27 28 29 30 31 32 33 34 35 36 37 38 39 40 41 42 43 44 45 46 47 48 49 50
000
ASUS45 KBOI 020710
RWRID

IDAHO REGIONAL WEATHER ROUNDUP
NATIONAL WEATHER SERVICE BOISE ID
100 AM MDT SUN AUG 02 2015

NOTE: "FAIR" INDICATES FEW OR NO CLOUDS BELOW 12000 FEET
WITH NO SIGNIFICANT WEATHER AND/OR OBSTRUCTIONS TO VISIBILITY

IDZ012-014-020800-
SOUTHWEST IDAHO


CITY           SKY/WX    TMP DP  RH WIND       PRES   REMARKS
BOISE          MOCLDY    80  36  20 E6        29.88S
CALDWELL       MOCLDY    70  50  49 CALM      29.87S
MOUNTAIN HOME  PTCLDY    77  31  18 NW7       29.88S
$$

IDZ016-017-020800-
SOUTHCENTRAL IDAHO


CITY           SKY/WX    TMP DP  RH WIND       PRES   REMARKS
BURLEY         PTCLDY    66  40  38 S7        29.98S
JEROME         CLEAR     71  37  28 E6        29.97F
TWIN FALLS     PTCLDY    77  30  17 S15       29.96S
$$

IDZ019>023-020800-
SOUTHEAST IDAHO


CITY           SKY/WX    TMP DP  RH WIND       PRES   REMARKS
IDAHO FALLS    PTCLDY    60  48  64 E6        30.05F
POCATELLO      CLEAR     64  39  39 E6        30.03S
REXBURG        CLEAR     58  43  57 NE5       30.08R
$$

IDZ006-010-011-018-031-032-020800-
CENTRAL IDAHO MOUNTAINS


CITY           SKY/WX    TMP DP  RH WIND       PRES   REMARKS
MCCALL         CLEAR     67  39  35 N8        30.09S
HAILEY         CLEAR     70  36  28 NW13G20   30.11F
STANLEY          N/A     54  30  40 SE5       30.23S
SALMON         CLEAR     61  43  51 E3        30.02R
CHALLIS        CLEAR     64  36  35 CALM      30.09R
$$

IDZ002-004-006-007-026-020800-
NORTHERN IDAHO


CITY           SKY/WX    TMP DP  RH WIND       PRES   REMARKS
LEWISTON       CLEAR     78  27  15 SE5       29.85R
LOWELL           N/A     66  52  60 CALM      29.92R
COEUR D`ALENE  PTCLDY    66  41  39 S3        29.89S
MULLAN PASS    PTCLDY    71  13  10 W3        30.17S
$$


USA.gov is the U.S. government's official web portal to all federal, state and local government web resources and services.